KLM933 EHAM-EGPH

Flight info

Callsign KLM933
Flight time N/A
Altitude 34000
Route BERGI L602 SUPUR P1 GODOS DCT ROXAT DCT BAZNA DCT ANMAZ DCT EWOKE DCT AGPED
Aircraft A21N/M-SDE2E3FGHIRWXY/LB1

Departure

Time N/A
Airport Amsterdam Airport Schiphol (EHAM)

Arrival

Time 2026-04-25 17:42
Airport Edinburgh Airport (EGPH)
Time Latitude Longitude Altitude Speed Heading
2026-04-25 17:31 55.61448 -3.32823 8627 ft 264 kts 308°
2026-04-25 17:31 55.62607 -3.35335 8293 ft 264 kts 308°
2026-04-25 17:31 55.63764 -3.37844 8001 ft 263 kts 307°
2026-04-25 17:32 55.64925 -3.40359 7706 ft 264 kts 308°
2026-04-25 17:32 55.66089 -3.42870 7388 ft 264 kts 308°
2026-04-25 17:32 55.67282 -3.45444 6873 ft 269 kts 308°
2026-04-25 17:32 55.68454 -3.47980 6483 ft 269 kts 308°
2026-04-25 17:33 55.69633 -3.50545 6119 ft 268 kts 308°
2026-04-25 17:33 55.70802 -3.53099 5814 ft 266 kts 307°
2026-04-25 17:33 55.71966 -3.55645 5501 ft 266 kts 307°
2026-04-25 17:33 55.73129 -3.58192 5179 ft 266 kts 307°
2026-04-25 17:34 55.74286 -3.60725 4879 ft 262 kts 307°
2026-04-25 17:34 55.75427 -3.63229 4560 ft 259 kts 307°
2026-04-25 17:34 55.76557 -3.65710 4239 ft 259 kts 307°
2026-04-25 17:34 55.77673 -3.68169 4013 ft 252 kts 307°
2026-04-25 17:35 55.78744 -3.70547 3934 ft 239 kts 307°
2026-04-25 17:35 55.79752 -3.72772 3922 ft 223 kts 308°
2026-04-25 17:35 55.80754 -3.74738 3923 ft 210 kts 316°
2026-04-25 17:35 55.82038 -3.75929 3919 ft 212 kts 350°
2026-04-25 17:36 55.83475 -3.75523 3942 ft 215 kts 30°
2026-04-25 17:36 55.84461 -3.73564 3974 ft 218 kts 71°
2026-04-25 17:36 55.84740 -3.70922 3991 ft 217 kts 85°
2026-04-25 17:36 55.84961 -3.68320 3913 ft 206 kts 77°
2026-04-25 17:37 55.85409 -3.65913 3712 ft 206 kts 68°
2026-04-25 17:37 55.86038 -3.63638 3455 ft 204 kts 62°
2026-04-25 17:37 55.86761 -3.61494 3167 ft 200 kts 59°
2026-04-25 17:37 55.87470 -3.59402 2896 ft 195 kts 59°
2026-04-25 17:38 55.88163 -3.57364 2634 ft 187 kts 60°
2026-04-25 17:38 55.88388 -3.56704 2550 ft 183 kts 61°
2026-04-25 17:38 55.89437 -3.53651 2132 ft 162 kts 60°
2026-04-25 17:38 55.90002 -3.52003 1929 ft 150 kts 61°
2026-04-25 17:39 55.90505 -3.50539 1721 ft 126 kts 60°
2026-04-25 17:39 55.90961 -3.49257 1508 ft 121 kts 62°
2026-04-25 17:39 55.91382 -3.47963 1348 ft 122 kts 63°
2026-04-25 17:39 55.91805 -3.46660 1240 ft 122 kts 61°
2026-04-25 17:40 55.92258 -3.45385 1040 ft 120 kts 58°
2026-04-25 17:40 55.92692 -3.44150 883 ft 119 kts 59°
2026-04-25 17:40 55.93092 -3.42881 718 ft 115 kts 60°
2026-04-25 17:40 55.93506 -3.41646 548 ft 118 kts 59°
2026-04-25 17:41 55.93935 -3.40402 361 ft 119 kts 59°
2026-04-25 17:41 55.94357 -3.39154 221 ft 118 kts 59°
2026-04-25 17:41 55.94774 -3.37919 126 ft 110 kts 59°
2026-04-25 17:41 55.95108 -3.36933 118 ft 67 kts 58°
2026-04-25 17:42 55.95250 -3.36517 114 ft 18 kts 58°
2026-04-25 17:42 55.95241 -3.36395 115 ft 11 kts 152°
2026-04-25 17:42 55.95195 -3.36353 118 ft 2 kts 149°
2026-04-25 17:42 55.95193 -3.36350 118 ft 0 kts 150°
2026-04-25 17:43 55.95179 -3.36336 119 ft 4 kts 150°
2026-04-25 17:43 55.95143 -3.36307 121 ft 7 kts 176°
2026-04-25 17:43 55.95102 -3.36370 120 ft 9 kts 237°
2026-04-25 17:44 55.95040 -3.36393 118 ft 6 kts 168°
2026-04-25 17:44 55.95003 -3.36429 121 ft 4 kts 237°
2026-04-25 17:44 55.94983 -3.36485 119 ft 7 kts 219°
2026-04-25 17:44 55.94939 -3.36450 118 ft 5 kts 149°
2026-04-25 17:45 55.94925 -3.36435 118 ft 0 kts 149°